Location: *
(13.0000°N, 151.6000°E)
Time: 14:32:15
(UTC+00:00)

ATLAS 3B R/B - Pass Details

Date: 01 April 2020
Orbit: 1024 x 1171 km, 63.8° (Epoch: 02 June)

Event Time Altitude Azimuth Distance (km) Brightness Sun altitude
Exits shadow 17:52:40 48° 185° (S) 1,341 3.0 -28.9°
Maximum altitude 17:54:40 75° 113° (ESE) 1,074 2.7 -28.4°
Drops below altitude 10° 18:01:16 10° 28° (NNE) 2,815 5.4 -26.8°
Sets 18:03:51 0° 27° (NNE) 3,761 6.1 -26.2°
